When you browse on this site, cookies collect data to enhance your experience and personalize the content and advertising you see.
Visit our Privacy Policy to learn more. By continuing to use the site, you agree to this use of cookies and data.
  • In Austria
  • List of Countries
  • For 7 days
  • Water Temperature
  • Satellite Maps
  • Weather Map
  • News
  • Weather Widgets
  • user-avatar
    Login

    Hourly Weather Ali Bayramli

    Today, 19 July, Friday

    Time Temperature Precipitation Wind Pressure Humidity
    00:00 +27°C° 0 mm 2 mps 752 mmHg 59%
    01:00 +27°C° 0 mm 2 mps 752 mmHg 60%
    02:00 +27°C° 0 mm 2 mps 752 mmHg 60%
    03:00 +27°C° 0 mm 2 mps 752 mmHg 60%
    04:00 +27°C° 0 mm 2 mps 753 mmHg 58%
    05:00 +28°C° 0 mm 2 mps 753 mmHg 56%
    06:00 +28°C° 0 mm 3 mps 754 mmHg 55%
    07:00 +30°C° 0 mm 3 mps 754 mmHg 49%
    08:00 +33°C° 0 mm 3 mps 755 mmHg 43%
    09:00 +35°C° 0 mm 3 mps 755 mmHg 36%
    10:00 +36°C° 0 mm 3 mps 755 mmHg 34%
    11:00 +37°C° 0 mm 3 mps 755 mmHg 31%
    12:00 +38°C° 0 mm 3 mps 755 mmHg 28%
    13:00 +40°C° 0 mm 5 mps 754 mmHg 27%
    14:00 +40°C° 0 mm 7 mps 754 mmHg 27%
    15:00 +40°C° 0 mm 8 mps 754 mmHg 26%
    16:00 +39°C° 0 mm 8 mps 754 mmHg 27%
    17:00 +38°C° 0 mm 9 mps 754 mmHg 28%
    18:00 +37°C° 0 mm 9 mps 754 mmHg 30%
    19:00 +34°C° 0 mm 8 mps 755 mmHg 34%
    20:00 +33°C° 0 mm 7 mps 755 mmHg 39%
    21:00 +30°C° 0 mm 6 mps 755 mmHg 44%
    22:00 +30°C° 0 mm 5 mps 756 mmHg 46%
    23:00 +29°C° 0 mm 4 mps 756 mmHg 49%

    Tomorrow, 20 July, Saturday

    Time Temperature Precipitation Wind Pressure Humidity
    00:00 +29°C° 0 mm 3 mps 756 mmHg 51%
    01:00 +28°C° 0 mm 3 mps 756 mmHg 52%
    02:00 +28°C° 0 mm 2 mps 756 mmHg 52%
    03:00 +27°C° 0 mm 2 mps 756 mmHg 53%
    04:00 +28°C° 0 mm 2 mps 756 mmHg 51%
    05:00 +29°C° 0 mm 2 mps 757 mmHg 49%
    06:00 +29°C° 0 mm 2 mps 757 mmHg 47%
    07:00 +31°C° 0 mm 2 mps 757 mmHg 41%
    08:00 +34°C° 0 mm 2 mps 757 mmHg 35%
    09:00 +36°C° 0 mm 2 mps 758 mmHg 28%
    10:00 +38°C° 0 mm 3 mps 758 mmHg 26%
    11:00 +39°C° 0 mm 3 mps 758 mmHg 23%
    12:00 +40°C° 0 mm 3 mps 758 mmHg 21%
    13:00 +42°C° 0 mm 5 mps 758 mmHg 21%
    14:00 +43°C° 0 mm 7 mps 757 mmHg 21%
    15:00 +43°C° 0 mm 8 mps 757 mmHg 21%
    16:00 +42°C° 0 mm 9 mps 757 mmHg 23%
    17:00 +39°C° 0 mm 10 mps 758 mmHg 25%
    18:00 +38°C° 0 mm 11 mps 758 mmHg 26%
    19:00 +37°C° 0 mm 10 mps 758 mmHg 28%
    20:00 +35°C° 0 mm 9 mps 759 mmHg 30%
    21:00 +34°C° 0 mm 8 mps 759 mmHg 32%
    22:00 +33°C° 0 mm 7 mps 759 mmHg 36%
    23:00 +32°C° 0 mm 6 mps 759 mmHg 39%

    Day after tomorrow, 21 July, Sunday

    Time Temperature Precipitation Wind Pressure Humidity
    00:00 +30°C° 0 mm 6 mps 759 mmHg 42%
    01:00 +30°C° 0 mm 5 mps 759 mmHg 43%
    02:00 +29°C° 0 mm 4 mps 759 mmHg 45%
    03:00 +29°C° 0 mm 3 mps 759 mmHg 46%
    04:00 +29°C° 0 mm 3 mps 759 mmHg 45%
    05:00 +29°C° 0 mm 3 mps 759 mmHg 44%
    06:00 +30°C° 0 mm 2 mps 760 mmHg 44%
    07:00 +33°C° 0 mm 3 mps 759 mmHg 38%
    08:00 +35°C° 0 mm 4 mps 759 mmHg 32%
    09:00 +37°C° 0 mm 5 mps 759 mmHg 26%
    10:00 +39°C° 0 mm 5 mps 759 mmHg 24%
    11:00 +40°C° 0 mm 6 mps 759 mmHg 23%
    12:00 +41°C° 0 mm 6 mps 758 mmHg 21%
    13:00 +41°C° 0 mm 6 mps 758 mmHg 21%
    14:00 +41°C° 0 mm 7 mps 757 mmHg 22%
    15:00 +41°C° 0 mm 7 mps 756 mmHg 22%
    16:00 +40°C° 0 mm 7 mps 756 mmHg 25%
    17:00 +39°C° 0 mm 6 mps 756 mmHg 28%
    18:00 +36°C° 0 mm 6 mps 756 mmHg 31%
    19:00 +35°C° 0 mm 5 mps 757 mmHg 35%
    20:00 +33°C° 0 mm 5 mps 757 mmHg 40%
    21:00 +30°C° 0 mm 4 mps 757 mmHg 45%
    22:00 +30°C° 0 mm 3 mps 757 mmHg 45%
    23:00 +30°C° 0 mm 3 mps 757 mmHg 45%

    22 July, Monday

    Time Temperature Precipitation Wind Pressure Humidity
    00:00 +29°C° 0 mm 3 mps 757 mmHg 44%
    01:00 +29°C° 0 mm 2 mps 756 mmHg 47%
    02:00 +28°C° 0 mm 2 mps 756 mmHg 49%
    03:00 +27°C° 0 mm 2 mps 755 mmHg 52%
    04:00 +28°C° 0 mm 2 mps 756 mmHg 52%
    05:00 +28°C° 0 mm 2 mps 756 mmHg 52%
    06:00 +28°C° 0 mm 1 mps 756 mmHg 52%
    07:00 +30°C° 0 mm 1 mps 755 mmHg 46%
    08:00 +32°C° 0 mm 1 mps 755 mmHg 40%
    09:00 +34°C° 0 mm 1 mps 755 mmHg 33%
    10:00 +37°C° 0 mm 2 mps 755 mmHg 30%
    11:00 +38°C° 0 mm 3 mps 755 mmHg 27%
    12:00 +41°C° 0 mm 4 mps 754 mmHg 24%
    13:00 +41°C° 0 mm 5 mps 754 mmHg 24%
    14:00 +41°C° 0 mm 6 mps 754 mmHg 24%
    15:00 +43°C° 0 mm 7 mps 753 mmHg 24%
    16:00 +40°C° 0 mm 7 mps 753 mmHg 29%
    17:00 +38°C° 0 mm 8 mps 753 mmHg 33%
    18:00 +35°C° 0 mm 8 mps 753 mmHg 38%
    19:00 +34°C° 0 mm 8 mps 754 mmHg 40%
    20:00 +32°C° 0 mm 8 mps 754 mmHg 43%
    21:00 +30°C° 0 mm 7 mps 754 mmHg 45%
    22:00 +32°C° 0 mm 7 mps 754 mmHg 42%
    23:00 +32°C° 0 mm 7 mps 754 mmHg 38%

    23 July, Tuesday

    Time Temperature Precipitation Wind Pressure Humidity
    00:00 +32°C° 0 mm 6 mps 754 mmHg 35%
    01:00 +30°C° 0 mm 5 mps 754 mmHg 39%
    02:00 +29°C° 0 mm 4 mps 754 mmHg 43%
    03:00 +28°C° 0 mm 3 mps 754 mmHg 47%
    04:00 +28°C° 0 mm 3 mps 754 mmHg 50%
    05:00 +28°C° 0 mm 3 mps 754 mmHg 54%
    06:00 +28°C° 0 mm 3 mps 755 mmHg 57%
    07:00 +30°C° 0 mm 3 mps 755 mmHg 51%
    08:00 +33°C° 0 mm 3 mps 755 mmHg 44%
    09:00 +35°C° 0 mm 2 mps 755 mmHg 37%
    10:00 +36°C° 0 mm 3 mps 754 mmHg 33%
    11:00 +38°C° 0 mm 3 mps 754 mmHg 29%
    12:00 +40°C° 0 mm 3 mps 754 mmHg 24%
    13:00 +41°C° 0 mm 5 mps 753 mmHg 24%
    14:00 +41°C° 0 mm 7 mps 753 mmHg 23%
    15:00 +42°C° 0 mm 9 mps 752 mmHg 23%
    16:00 +40°C° 0 mm 9 mps 752 mmHg 25%
    17:00 +38°C° 0 mm 9 mps 752 mmHg 28%
    18:00 +37°C° 0 mm 9 mps 752 mmHg 30%
    19:00 +35°C° 0 mm 7 mps 752 mmHg 33%
    20:00 +33°C° 0 mm 6 mps 752 mmHg 36%
    21:00 +32°C° 0 mm 5 mps 753 mmHg 39%
    22:00 +30°C° 0 mm 4 mps 753 mmHg 45%
    23:00 +29°C° 0 mm 3 mps 752 mmHg 51%

    24 July, Wednesday

    Time Temperature Precipitation Wind Pressure Humidity
    00:00 +28°C° 0 mm 3 mps 752 mmHg 57%
    01:00 +27°C° 0 mm 3 mps 752 mmHg 60%
    02:00 +27°C° 0 mm 3 mps 752 mmHg 63%
    03:00 +26°C° 0 mm 3 mps 752 mmHg 65%
    04:00 +27°C° 0 mm 3 mps 752 mmHg 63%
    05:00 +27°C° 0 mm 2 mps 752 mmHg 61%
    06:00 +28°C° 0 mm 2 mps 752 mmHg 58%
    07:00 +30°C° 0 mm 2 mps 752 mmHg 51%
    08:00 +32°C° 0 mm 2 mps 752 mmHg 45%
    09:00 +34°C° 0 mm 2 mps 752 mmHg 38%
    10:00 +36°C° 0 mm 2 mps 752 mmHg 33%
    11:00 +37°C° 0 mm 1 mps 751 mmHg 28%
    12:00 +40°C° 0 mm 1 mps 751 mmHg 23%
    13:00 +40°C° 0 mm 2 mps 751 mmHg 24%
    14:00 +41°C° 0 mm 4 mps 750 mmHg 25%
    15:00 +41°C° 0 mm 6 mps 750 mmHg 26%
    16:00 +39°C° 0 mm 6 mps 750 mmHg 28%
    17:00 +38°C° 0 mm 6 mps 750 mmHg 31%
    18:00 +36°C° 0 mm 7 mps 750 mmHg 34%
    19:00 +34°C° 0 mm 6 mps 750 mmHg 40%
    20:00 +32°C° 0 mm 5 mps 751 mmHg 46%
    21:00 +30°C° 0 mm 5 mps 751 mmHg 51%
    22:00 +29°C° 0 mm 3 mps 751 mmHg 53%
    23:00 +28°C° 0 mm 2 mps 751 mmHg 54%
    Show more